TimeCDT,TemperatureF,Dew PointF,Humidity,Sea Level PressureIn,VisibilityMPH,Wind Direction,Wind SpeedMPH,Gust SpeedMPH,PrecipitationIn,Events,Conditions,WindDirDegrees,DateUTC
12:15 AM,57.9,31.6,37,30.07,10.0,SE,12.7,-,N/A,,Clear,140,2013-03-29 05:15:00
12:35 AM,58.1,31.1,36,30.06,10.0,SSE,8.1,-,N/A,,Clear,150,2013-03-29 05:35:00
12:55 AM,54.9,31.5,41,30.06,10.0,SSE,4.6,-,N/A,,Clear,150,2013-03-29 05:55:00
1:15 AM,54.7,31.1,41,30.06,10.0,Calm,Calm,-,N/A,,Clear,0,2013-03-29 06:15:00
1:35 AM,50.4,30.9,47,30.06,10.0,Calm,Calm,-,N/A,,Clear,0,2013-03-29 06:35:00
1:55 AM,48.6,29.3,47,30.06,10.0,North,6.9,-,N/A,,Clear,10,2013-03-29 06:55:00
2:15 AM,45.5,28.2,51,30.06,10.0,Calm,Calm,-,N/A,,Clear,0,2013-03-29 07:15:00
2:35 AM,44.4,29.3,55,30.06,10.0,Calm,Calm,-,N/A,,Clear,0,2013-03-29 07:35:00
2:55 AM,39.2,28.0,64,30.07,10.0,West,4.6,-,N/A,,Clear,280,2013-03-29 07:55:00
3:15 AM,39.4,28.0,64,30.07,10.0,West,3.5,-,N/A,,Clear,260,2013-03-29 08:15:00
3:35 AM,40.5,29.8,66,30.06,10.0,WSW,5.8,-,N/A,,Clear,240,2013-03-29 08:35:00
3:55 AM,41.7,30.9,66,30.06,10.0,WSW,8.1,-,N/A,,Clear,250,2013-03-29 08:55:00
4:15 AM,43.3,30.4,60,30.06,10.0,SSW,6.9,-,N/A,,Clear,210,2013-03-29 09:15:00
4:35 AM,46.2,28.8,51,30.05,10.0,WSW,9.2,-,N/A,,Clear,240,2013-03-29 09:35:00
4:55 AM,47.1,27.1,46,30.06,10.0,SW,6.9,-,N/A,,Clear,220,2013-03-29 09:55:00
5:15 AM,44.6,26.4,49,30.06,10.0,SW,5.8,-,N/A,,Clear,220,2013-03-29 10:15:00
5:35 AM,46.2,26.2,46,30.06,10.0,SW,6.9,-,N/A,,Clear,230,2013-03-29 10:35:00
5:55 AM,42.1,26.4,54,30.07,10.0,West,11.5,-,N/A,,Clear,280,2013-03-29 10:55:00
6:15 AM,42.8,25.5,51,30.08,10.0,SW,9.2,-,N/A,,Clear,230,2013-03-29 11:15:00
6:35 AM,45.9,26.2,46,30.07,10.0,SW,6.9,-,N/A,,Clear,220,2013-03-29 11:35:00
6:55 AM,43.0,27.3,54,30.08,10.0,SW,4.6,-,N/A,,Clear,220,2013-03-29 11:55:00
7:15 AM,41.7,26.6,55,30.09,10.0,WNW,4.6,-,N/A,,Clear,290,2013-03-29 12:15:00
7:35 AM,41.2,26.1,55,30.09,10.0,West,6.9,-,N/A,,Clear,260,2013-03-29 12:35:00
7:55 AM,40.6,26.4,57,30.09,7.0,WSW,4.6,-,N/A,,Clear,240,2013-03-29 12:55:00
8:15 AM,42.4,26.8,54,30.11,7.0,WSW,6.9,-,N/A,,Clear,250,2013-03-29 13:15:00
8:35 AM,45.5,28.2,51,30.10,10.0,Calm,Calm,-,N/A,,Clear,0,2013-03-29 13:35:00
8:55 AM,46.9,29.1,50,30.10,10.0,WNW,3.5,-,N/A,,Clear,290,2013-03-29 13:55:00
9:15 AM,48.9,29.8,48,30.10,10.0,Calm,Calm,-,N/A,,Clear,0,2013-03-29 14:15:00
9:35 AM,51.1,30.9,46,30.11,10.0,North,3.5,-,N/A,,Clear,350,2013-03-29 14:35:00
9:55 AM,53.6,32.2,44,30.11,10.0,North,3.5,-,N/A,,Clear,360,2013-03-29 14:55:00
10:15 AM,58.8,33.6,39,30.12,10.0,NW,9.2,-,N/A,,Clear,320,2013-03-29 15:15:00
10:35 AM,59.9,34.2,38,30.12,10.0,NNW,10.4,-,N/A,,Clear,340,2013-03-29 15:35:00
10:55 AM,63.0,34.5,35,30.11,10.0,North,11.5,-,N/A,,Clear,350,2013-03-29 15:55:00
11:15 AM,63.5,34.2,33,30.11,10.0,NNW,9.2,-,N/A,,Clear,340,2013-03-29 16:15:00
11:55 AM,67.1,34.2,30,30.11,10.0,NNW,9.2,-,N/A,,Clear,340,2013-03-29 16:55:00
12:15 PM,68.7,35.1,29,30.11,10.0,NNW,9.2,-,N/A,,Clear,340,2013-03-29 17:15:00
12:35 PM,69.3,36.1,30,30.11,10.0,NNW,6.9,-,N/A,,Clear,340,2013-03-29 17:35:00
12:55 PM,70.3,35.8,28,30.10,10.0,North,10.4,-,N/A,,Clear,360,2013-03-29 17:55:00
1:15 PM,71.6,35.4,27,30.09,10.0,North,8.1,-,N/A,,Clear,10,2013-03-29 18:15:00
1:35 PM,72.9,35.1,25,30.09,10.0,NNW,11.5,-,N/A,,Clear,340,2013-03-29 18:35:00
1:55 PM,73.2,34.3,24,30.08,10.0,North,9.2,-,N/A,,Clear,10,2013-03-29 18:55:00
2:15 PM,73.6,33.3,23,30.07,10.0,NNE,6.9,-,N/A,,Clear,20,2013-03-29 19:15:00
2:35 PM,73.8,32.5,22,30.07,10.0,North,5.8,-,N/A,,Clear,360,2013-03-29 19:35:00
2:55 PM,75.6,32.7,21,30.06,10.0,NE,6.9,-,N/A,,Clear,40,2013-03-29 19:55:00
3:15 PM,74.8,31.8,21,30.05,10.0,Calm,Calm,-,N/A,,Scattered Clouds,0,2013-03-29 20:15:00
3:35 PM,75.4,29.1,18,30.04,10.0,East,6.9,-,N/A,,Clear,90,2013-03-29 20:35:00
3:55 PM,78.1,27.7,16,30.03,10.0,Calm,Calm,-,N/A,,Clear,0,2013-03-29 20:55:00
4:15 PM,77.2,25.3,15,30.03,10.0,East,3.5,-,N/A,,Clear,100,2013-03-29 21:15:00
4:35 PM,77.7,27.1,16,30.02,10.0,East,6.9,-,N/A,,Clear,80,2013-03-29 21:35:00
4:55 PM,77.9,27.3,16,30.02,10.0,South,4.6,-,N/A,,Clear,180,2013-03-29 21:55:00
5:15 PM,77.2,26.4,15,30.01,10.0,SSE,6.9,-,N/A,,Clear,160,2013-03-29 22:15:00
5:35 PM,75.9,24.8,15,30.01,10.0,Calm,Calm,-,N/A,,Clear,0,2013-03-29 22:35:00
5:55 PM,75.4,26.6,16,30.02,10.0,West,5.8,-,N/A,,Scattered Clouds,270,2013-03-29 22:55:00
6:15 PM,74.3,25.2,16,30.02,10.0,West,17.3,21.9,N/A,,Mostly Cloudy,270,2013-03-29 23:15:00
6:35 PM,72.7,30.6,21,30.02,10.0,South,16.1,-,N/A,,Scattered Clouds,190,2013-03-29 23:35:00
6:55 PM,72.7,30.7,21,30.02,10.0,South,12.7,17.3,N/A,,Clear,170,2013-03-29 23:55:00
7:15 PM,70.5,31.8,24,30.02,10.0,South,16.1,-,N/A,,Clear,170,2013-03-30 00:15:00
7:35 PM,67.6,34.3,29,30.02,10.0,SSE,13.8,-,N/A,,Clear,160,2013-03-30 00:35:00
7:55 PM,66.6,34.7,31,30.02,10.0,SE,9.2,-,N/A,,Clear,130,2013-03-30 00:55:00
8:15 PM,62.4,35.6,37,30.02,10.0,SE,8.1,-,N/A,,Clear,130,2013-03-30 01:15:00
8:35 PM,60.6,36.7,41,30.02,10.0,SE,6.9,-,N/A,,Clear,140,2013-03-30 01:35:00
8:55 PM,57.9,36.0,44,30.02,7.0,ESE,5.8,-,N/A,,Clear,110,2013-03-30 01:55:00
9:15 PM,57.9,36.1,44,30.02,10.0,SE,4.6,-,N/A,,Clear,140,2013-03-30 02:15:00
9:35 PM,55.6,35.2,46,30.02,10.0,South,3.5,-,N/A,,Clear,180,2013-03-30 02:35:00
9:55 PM,52.5,33.3,48,30.03,10.0,Calm,Calm,-,N/A,,Clear,0,2013-03-30 02:55:00
10:15 PM,52.5,33.3,48,30.04,10.0,South,3.5,-,N/A,,Clear,170,2013-03-30 03:15:00
10:35 PM,51.1,32.4,49,30.04,10.0,SSE,5.8,-,N/A,,Clear,150,2013-03-30 03:35:00
10:55 PM,53.6,34.3,48,30.04,10.0,SSE,9.2,-,N/A,,Clear,150,2013-03-30 03:55:00
11:15 PM,55.9,37.9,51,30.04,10.0,South,11.5,-,N/A,,Clear,170,2013-03-30 04:15:00
11:35 PM,56.5,38.3,51,30.04,10.0,South,10.4,-,N/A,,Clear,180,2013-03-30 04:35:00
11:55 PM,54.9,38.3,54,30.04,10.0,South,12.7,-,N/A,,Clear,180,2013-03-30 04:55:00